Regional Weather Roundup
Issued by NWS Glasgow, MT

Home | Current Version | Previous Version | Text Only | Print | Product List | Glossary On
Versions: 1 2 3 4 5 6 7 8 9 10 11 12 13 14 15 16 17 18 19 20 21 22 23 24 25 26 27 28 29 30 31 32 33 34 35 36 37 38 39 40 41 42 43 44 45 46 47 48 49 50
000
ASUS45 KGGW 300215
RWRGGW
HOURLY REGIONAL WEATHER ROUNDUP FOR NORTHEAST MONTANA
NATIONAL WEATHER SERVICE GLASGOW MONTANA
800 PM MDT SAT AUG 29 2015

NOTE: "FAIR" INDICATES FEW OR NO CLOUDS BELOW 12,000 FEET WITH NO
SIGNIFICANT WEATHER AND/OR OBSTRUCTIONS TO VISISBILITY.

NORTHEAST MONTANA


CITY           SKY/WX    TMP DP  RH WIND       PRES   REMARKS
GLASGOW        HAZE      80  43  26 E12       29.70F VSB 1
PLENTYWOOD       N/A     76  45  33 E6          N/A
WOLF POINT     CLOUDY    81  48  31 E5        29.72F HAZE
JORDAN           N/A     82  43  25 E5        29.73F
WINNETT          N/A     84  38  19 S5          N/A
SIDNEY         CLOUDY    82  55  39 CALM      29.75S
GLENDIVE       CLOUDY    84  46  26 E5        29.78S
MALTA            N/A     84  44  24 SE5         N/A

FORT PECK REPORTS


CITY           SKY/WX    TMP DP  RH WIND       PRES   REMARKS
FORT PECK        N/A     82  49  31 E15         N/A
THE PINES        N/A     84  42  22 E6          N/A

SOUTHEAST MONTANA


CITY           SKY/WX    TMP DP  RH WIND       PRES   REMARKS
BILLINGS       CLOUDY    83  42  23 SW5       29.82F
MILES CITY     MOCLDY    88  42  20 SE6       29.75F
BAKER          MOCLDY    81  50  33 S14       29.85R
LIVINGSTON     MOCLDY    82  41  23 SW24G35   29.84S

CENTRAL MONTANA


CITY           SKY/WX    TMP DP  RH WIND       PRES   REMARKS
HAVRE          LGT RAIN  73  57  57 MISG      29.74R
LEWISTOWN      CLOUDY    82  43  25 S7        29.80R
GREAT FALLS    MOCLDY    73  55  53 S15       29.74S
CUT BANK       CLOUDY    75  42  30 W23G29    29.74R HAZE
HELENA         CLOUDY    73  57  57 SE6       29.74F
BUTTE          MOCLDY    72  48  42 CALM      29.90R
BOZEMAN        CLOUDY    82  41  23 S21       29.82S

WESTERN MONTANA


CITY           SKY/WX    TMP DP  RH WIND       PRES   REMARKS
MISSOULA       CLOUDY    75  44  33 N12       29.81S HAZE
KALISPELL      NOT AVBL

NORTH DAKOTA


CITY           SKY/WX    TMP DP  RH WIND       PRES   REMARKS
WILLISTON      CLOUDY    82  53  36 NE8       29.75F HAZE
DICKINSON      MOCLDY    76  47  35 S6        29.82S
MINOT          MOCLDY    75  58  55 NE3       29.77S HAZE
BISMARCK       MOCLDY    76  62  62 SE8       29.82S

SOUTHERN SASKATCHEWAN


CITY           SKY/WX    TMP DP  RH WIND       PRES   REMARKS
REGINA         CLOUDY    73  55  53 E8        29.74F SMOKE
ESTEVAN        SMOKE     73  54  49 E7        29.78S VSB 3/4
SWIFT CURRENT  PTCLDY    73  52  46 SE12G17   29.69F HAZE



USA.gov is the U.S. government's official web portal to all federal, state and local government web resources and services.